Location: Newark
(34.7667°N, 118.4167°W)
Time: 17:27:47
(UTC+00:00)

N. Korean satellite - Visible Passes

Search period start: 24 March 2019 00:00
Search period end: 03 April 2019 00:00
Orbit: 456 x 510 km, 97.2° (Epoch: 23 March)

Date Brightness Start Highest point End Pass type
(mag) Time Alt. Az. Time Alt. Az. Time Alt. Az.
24 Mar 9.6 13:19:32 10° NE 13:22:21 22° E 13:25:12 10° SSE visible
25 Mar 10.5 12:56:58 10° E 12:57:24 10° E 12:57:50 10° E visible
28 Mar 9.8 13:13:50 10° NE 13:16:27 19° E 13:19:04 10° SE visible
01 Apr 9.9 13:08:10 10° NE 13:10:30 16° E 13:12:50 10° SE visible
